User: anonymous   Login
Location: Caltech
(34.1382°N, 118.1253°W)
Time: 14:42:20
(UTC-08:00)
Language:

NOAA 19 - Orbit

View from above orbital plane
View from above orbital plane
View from above satellite
View from above satellite

Ground track
Ground track

The orbit data is extracted from the following two-line orbital elements,

1 33591U 09005A   15032.48587792  .00000312  00000-0  19550-3 0  5542
2 33591 098.9752 342.1627 0013975 188.7841 308.1496 14.11863628308349
Epoch (UTC): 01 February 2015 11:39:39
Eccentricity: 0.0013975
inclination: 98.9752°
perigee height: 843 km
apogee height: 863 km
right ascension of ascending node: 342.1627°
argument of perigee: 188.7841°
revolutions per day: 14.11863628
mean anomaly at epoch: 308.1496°
orbit number at epoch: 30834

The dashed part of the orbit path shows where the satellite is in the earth's shadow,  

DLR